Regional Weather Roundup
Issued by NWS

Current Version | Previous Version | Text Only | Print | Product List | Glossary On
Versions: 1 2 3 4 5 6 7 8 9 10 11 12 13 14 15 16 17 18 19 20 21 22 23 24 25 26 27 28
000
ASCA42 TJSJ 030210
RWRPR
PUERTO RICO/U.S. VIRGIN ISLANDS HOURLY WEATHER ROUNDUP
NATIONAL WEATHER SERVICE SAN JUAN PR
1000 PM AST MON MAY 02 2016

PRZ001-004-030300-
PUERTO RICO

CITY           SKY/WX    TMP DP  RH WIND       PRES   REMARKS
SAN JUAN LMM   LGT RAIN  73  73 100 E3        30.08R
CEIBA          CLOUDY    73  72  94 N3        30.11R
$$

PRZ006-007-030300-
U.S. VIRGIN ISLANDS

CITY           SKY/WX    TMP DP  RH WIND       PRES   REMARKS
CHARLOTTE AMA  PTCLDY    79  73  83 SE7       30.08R
CHRISTIANSTED  HVY RAIN  73  72  94 SE10      30.10R FOG
$$

HOURLY WEATHER ROUNDUP FOR THE NEWS MEDIA

CITY           SKY/WX    TMP DP  RH WIND       PRES   REMARKS
ORLANDO        TSTM      73  69  87 SE13G22   30.02R FOG
NEW YORK       MOCLDY    52  50  93 S5        29.95R
NEWARK         CLOUDY    56  52  86 NW3       29.92R
CHICAGO        PTCLDY    50  33  52 N6        30.01S
HARTFORD       CLOUDY    54  51  90 CALM      29.93R
BOSTON         CLOUDY    46  43  87 N9        29.96R
DALLAS         PTCLDY    60  46  59 N7        30.11R
PHILADELPHIA   CLOUDY    62  54  74 E5        29.91F
LOS ANGELES    FAIR      61  54  77 W15       29.95S
WASHINGTON DC  LGT RAIN  65  63  93 E8        29.87F



USA.gov is the U.S. government's official web portal to all federal, state and local government web resources and services.